,,PA_Meas_PMT16A,,PR_Meas_QMR101_102,,RH_Meas_QMH101,,SR_Meas_QMS101,,TA_Meas_QMH101,,GenWind,,GenWind,
time,status,PA,status,PR,status,RH,status,SR,status,TA,status,DirAvg,status,SpdAvg,
2012-11-15, 07:40:04,VALID,917.779,VALID,0,VALID,96.6725,VALID,123.665,VALID,19.7448,VALID,138,VALID,0,
2012-11-15, 07:41:04,VALID,917.713,VALID,0,VALID,96.6878,VALID,127.962,VALID,19.7838,VALID,127,VALID,0,
2012-11-15, 07:42:04,VALID,917.762,VALID,0,VALID,96.6573,VALID,132.475,VALID,19.8213,VALID,126,VALID,0,
2012-11-15, 07:43:04,VALID,917.84,VALID,0,VALID,96.642,VALID,136.88,VALID,19.8633,VALID,126,VALID,0,
2012-11-15, 07:44:04,VALID,917.678,VALID,0,VALID,96.5887,VALID,141.07,VALID,19.8603,VALID,137,VALID,0,
2012-11-15, 07:45:04,VALID,918.034,VALID,0,VALID,96.5429,VALID,145.26,VALID,19.8993,VALID,187,VALID,0,
2012-11-15, 07:46:04,VALID,917.813,VALID,0,VALID,96.3981,VALID,149.236,VALID,19.8798,VALID,144,VALID,0,
2012-11-15, 07:47:04,VALID,917.556,VALID,0,VALID,96.3524,VALID,152.889,VALID,19.9188,VALID,161,VALID,0,
2012-11-15, 07:48:04,VALID,917.751,VALID,0,VALID,96.3142,VALID,156.649,VALID,19.9578,VALID,141,VALID,0,
2012-11-15, 07:49:04,VALID,917.719,VALID,0,VALID,96.2304,VALID,160.195,VALID,19.9773,VALID,158,VALID,0,
2012-11-15, 07:50:04,VALID,917.788,VALID,0,VALID,96.1618,VALID,162.881,VALID,19.9758,VALID,158,VALID,0,
2012-11-15, 07:51:04,VALID,917.725,VALID,0,VALID,96.1313,VALID,164.922,VALID,20.0358,VALID,128,VALID,0,
2012-11-15, 07:52:04,VALID,917.843,VALID,0,VALID,96.1465,VALID,166.749,VALID,20.0944,VALID,128,VALID,0,
2012-11-15, 07:53:04,VALID,917.825,VALID,0,VALID,96.1541,VALID,169.542,VALID,20.1739,VALID,128,VALID,0,
2012-11-15, 07:54:04,VALID,917.793,VALID,0,VALID,95.9483,VALID,171.369,VALID,20.2114,VALID,127,VALID,0,
2012-11-15, 07:55:04,VALID,917.96,VALID,0,VALID,95.7196,VALID,173.732,VALID,20.2714,VALID,139,VALID,0,
2012-11-15, 07:56:04,VALID,917.735,VALID,0,VALID,95.5519,VALID,178.782,VALID,20.2894,VALID,121,VALID,0,
2012-11-15, 07:57:04,VALID,917.784,VALID,0,VALID,95.3079,VALID,182.328,VALID,20.3089,VALID,159,VALID,0,
2012-11-15, 07:58:04,VALID,917.794,VALID,0,VALID,95.1631,VALID,185.121,VALID,20.3674,VALID,161,VALID,0,
2012-11-15, 07:59:04,VALID,917.774,VALID,0,VALID,94.9649,VALID,186.84,VALID,20.4064,VALID,162,VALID,0,
2012-11-15, 08:00:04,VALID,917.882,VALID,0,VALID,94.6066,VALID,187.915,VALID,20.4454,VALID,152,VALID,0,
2012-11-15, 08:01:04,VALID,917.8,VALID,0,VALID,94.1034,VALID,189.956,VALID,20.465,VALID,161,VALID,0,
2012-11-15, 08:02:04,VALID,917.79,VALID,0,VALID,93.6613,VALID,192.642,VALID,20.504,VALID,133,VALID,0,
2012-11-15, 08:03:04,VALID,917.761,VALID,0,VALID,93.5012,VALID,194.576,VALID,20.5625,VALID,176,VALID,0,
2012-11-15, 08:04:04,VALID,917.81,VALID,0,VALID,93.6079,VALID,194.576,VALID,20.639,VALID,175,VALID,0,
2012-11-15, 08:05:04,VALID,917.79,VALID,0,VALID,92.777,VALID,192.212,VALID,20.66,VALID,131,VALID,0,
2012-11-15, 08:06:04,VALID,917.81,VALID,0,VALID,92.6626,VALID,185.121,VALID,20.6795,VALID,129,VALID,0,
2012-11-15, 08:07:04,VALID,917.799,VALID,0,VALID,93.2344,VALID,195.65,VALID,20.7381,VALID,129,VALID,0,
2012-11-15, 08:08:04,VALID,917.828,VALID,0,VALID,93.2191,VALID,192.212,VALID,20.795,VALID,114,VALID,0,
2012-11-15, 08:09:04,VALID,917.865,VALID,0,VALID,92.9218,VALID,199.303,VALID,20.8145,VALID,100,VALID,0,
2012-11-15, 08:10:04,VALID,917.835,VALID,0,VALID,92.1823,VALID,218.535,VALID,20.8161,VALID,107,VALID,0,
2012-11-15, 08:11:04,VALID,917.934,VALID,0,VALID,92.5025,VALID,233.47,VALID,20.8941,VALID,36,VALID,0,
2012-11-15, 08:12:04,VALID,917.989,VALID,0,VALID,91.6792,VALID,242.28,VALID,20.9136,VALID,82,VALID,0,
2012-11-15, 08:13:04,VALID,917.786,VALID,0,VALID,90.9626,VALID,249.049,VALID,20.9136,VALID,51,VALID,0,
2012-11-15, 08:14:04,VALID,918.142,VALID,0,VALID,90.9016,VALID,261.727,VALID,20.9722,VALID,19,VALID,0,
2012-11-15, 08:15:04,VALID,918.009,VALID,0,VALID,90.7644,VALID,275.157,VALID,21.0307,VALID,18,VALID,0,
2012-11-15, 08:16:04,VALID,917.962,VALID,0,VALID,90.9626,VALID,284.612,VALID,21.0697,VALID,22,VALID,0,
2012-11-15, 08:17:04,VALID,918.132,VALID,0,VALID,91.2447,VALID,287.942,VALID,21.1478,VALID,25,VALID,0,
2012-11-15, 08:18:04,VALID,918.037,VALID,0,VALID,90.0707,VALID,278.273,VALID,21.1868,VALID,43,VALID,0,
2012-11-15, 08:19:04,VALID,918.007,VALID,0,VALID,90.0325,VALID,270.215,VALID,21.3038,VALID,43,VALID,0,
2012-11-15, 08:20:04,VALID,918.02,VALID,0,VALID,87.2881,VALID,271.074,VALID,21.2648,VALID,43,VALID,0,
2012-11-15, 08:21:04,VALID,918.132,VALID,0,VALID,88.2258,VALID,277.628,VALID,21.3234,VALID,42,VALID,0,
2012-11-15, 08:22:04,VALID,918.064,VALID,0,VALID,88.1496,VALID,286.223,VALID,21.4014,VALID,42,VALID,0,
2012-11-15, 08:23:04,VALID,918.002,VALID,0,VALID,87.9132,VALID,295.893,VALID,21.4404,VALID,42,VALID,0,
2012-11-15, 08:24:04,VALID,918.003,VALID,0,VALID,88.4697,VALID,306.422,VALID,21.4193,VALID,42,VALID,0,
2012-11-15, 08:25:04,VALID,918.125,VALID,0,VALID,88.0123,VALID,309.645,VALID,21.4778,VALID,162,VALID,0,
2012-11-15, 08:26:04,VALID,918.122,VALID,0,VALID,88.4774,VALID,312.117,VALID,21.5965,VALID,162,VALID,0,
2012-11-15, 08:27:04,VALID,918.178,VALID,0,VALID,88.0505,VALID,312.439,VALID,21.7136,VALID,162,VALID,0,
2012-11-15, 08:28:04,VALID,918.137,VALID,0,VALID,88.3783,VALID,314.48,VALID,21.8502,VALID,187,VALID,0,
2012-11-15, 08:29:04,VALID,918.191,VALID,0,VALID,87.4787,VALID,308.034,VALID,21.9071,VALID,164,VALID,0,
2012-11-15, 08:30:04,VALID,918.084,VALID,0,VALID,85.5957,VALID,300.405,VALID,21.9673,VALID,128,VALID,0,
2012-11-15, 08:31:04,VALID,918.242,VALID,0,VALID,86.0684,VALID,329.307,VALID,21.9087,VALID,140,VALID,0,
2012-11-15, 08:32:04,VALID,918.279,VALID,0,VALID,86.2056,VALID,353.911,VALID,21.8892,VALID,148,VALID,0,
2012-11-15, 08:33:04,VALID,918.202,VALID,0,VALID,87.6998,VALID,347.787,VALID,21.9266,VALID,148,VALID,0,
2012-11-15, 08:34:04,VALID,918.273,VALID,0,VALID,87.4482,VALID,354.771,VALID,22.0632,VALID,132,VALID,0,
2012-11-15, 08:35:04,VALID,918.254,VALID,0,VALID,88.1877,VALID,354.986,VALID,22.1998,VALID,132,VALID,0,
2012-11-15, 08:36:04,VALID,918.091,VALID,0,VALID,84.9249,VALID,364.011,VALID,22.3381,VALID,101,VALID,0,
2012-11-15, 08:37:04,VALID,918.064,VALID,0,VALID,83.3239,VALID,339.729,VALID,22.3364,VALID,83,VALID,0,
2012-11-15, 08:38:04,VALID,918.169,VALID,0,VALID,83.3925,VALID,359.82,VALID,22.2974,VALID,158,VALID,0,
2012-11-15, 08:39:04,VALID,918.263,VALID,0,VALID,84.0177,VALID,367.879,VALID,22.3381,VALID,183,VALID,0,
2012-11-15, 08:40:04,VALID,918.128,VALID,0,VALID,85.672,VALID,364.118,VALID,22.3754,VALID,122,VALID,0,
2012-11-15, 08:41:04,VALID,918.096,VALID,0,VALID,82.1042,VALID,368.093,VALID,22.3559,VALID,82,VALID,0,
2012-11-15, 08:42:04,VALID,918.01,VALID,0,VALID,82.31,VALID,369.812,VALID,22.3933,VALID,46,VALID,0,
2012-11-15, 08:43:04,VALID,918.137,VALID,0,VALID,83.2782,VALID,372.713,VALID,22.473,VALID,54,VALID,0,
2012-11-15, 08:44:04,VALID,918.022,VALID,0,VALID,80.9378,VALID,379.375,VALID,22.473,VALID,72,VALID,0,
2012-11-15, 08:45:04,VALID,918.042,VALID,0,VALID,82.7217,VALID,387.863,VALID,22.473,VALID,44,VALID,0,
2012-11-15, 08:46:04,VALID,918.259,VALID,0,VALID,80.4728,VALID,375.829,VALID,22.4145,VALID,88,VALID,0,
2012-11-15, 08:47:04,VALID,918.072,VALID,0,VALID,83.6899,VALID,377.011,VALID,22.4535,VALID,64,VALID,0,
2012-11-15, 08:48:04,VALID,918.236,VALID,0,VALID,82.8818,VALID,364.548,VALID,22.4535,VALID,106,VALID,0,
2012-11-15, 08:49:04,VALID,918.392,VALID,0,VALID,84.3531,VALID,318.133,VALID,22.5121,VALID,156,VALID,0,
2012-11-15, 08:50:04,VALID,918.166,VALID,0,VALID,84.071,VALID,279.24,VALID,22.4925,VALID,183,VALID,0,
2012-11-15, 08:51:04,VALID,918.239,VALID,0,VALID,83.3697,VALID,279.669,VALID,22.5511,VALID,169,VALID,0,
2012-11-15, 08:52:04,VALID,918.453,VALID,0,VALID,82.6759,VALID,263.123,VALID,22.5706,VALID,159,VALID,0,
2012-11-15, 08:53:04,VALID,918.171,VALID,0,VALID,81.7916,VALID,361.754,VALID,22.5706,VALID,165,VALID,0,
2012-11-15, 08:54:04,VALID,918.257,VALID,0,VALID,83.3087,VALID,333.175,VALID,22.6292,VALID,164,VALID,0,
2012-11-15, 08:55:04,VALID,918.27,VALID,0,VALID,84.7419,VALID,344.027,VALID,22.7072,VALID,174,VALID,0,
2012-11-15, 08:56:04,VALID,918.252,VALID,0,VALID,84.5361,VALID,345.531,VALID,22.7267,VALID,178,VALID,0,
2012-11-15, 08:57:04,VALID,918.221,VALID,0,VALID,82.5768,VALID,314.373,VALID,22.725,VALID,190,VALID,0,
2012-11-15, 08:58:04,VALID,918.29,VALID,0,VALID,83.2248,VALID,319.423,VALID,22.725,VALID,199,VALID,0,
2012-11-15, 08:59:04,VALID,918.265,VALID,0,VALID,82.4091,VALID,338.332,VALID,22.7463,VALID,194,VALID,0,
2012-11-15, 09:00:04,VALID,918.462,VALID,0,VALID,80.7091,VALID,372.928,VALID,22.7853,VALID,198,VALID,0,
2012-11-15, 09:01:04,VALID,918.289,VALID,0,VALID,82.1194,VALID,509.916,VALID,22.7055,VALID,165,VALID,0,
2012-11-15, 09:02:04,VALID,918.286,VALID,0,VALID,81.4791,VALID,412.681,VALID,22.6274,VALID,162,VALID,0,
2012-11-15, 09:03:04,VALID,918.292,VALID,0,VALID,81.4028,VALID,283.322,VALID,22.5884,VALID,167,VALID,0,
2012-11-15, 09:04:04,VALID,918.287,VALID,0,VALID,82.7522,VALID,287.19,VALID,22.6079,VALID,200,VALID,0,
2012-11-15, 09:05:04,VALID,918.294,VALID,0,VALID,80.2898,VALID,319.852,VALID,22.5689,VALID,136,VALID,0,
2012-11-15, 09:06:04,VALID,918.309,VALID,0,VALID,83.1029,VALID,310.827,VALID,22.5494,VALID,136,VALID,0,
2012-11-15, 09:07:04,VALID,918.302,VALID,0,VALID,82.5082,VALID,312.869,VALID,22.5299,VALID,168,VALID,0,
2012-11-15, 09:08:04,VALID,918.277,VALID,0,VALID,79.9239,VALID,325.654,VALID,22.5884,VALID,128,VALID,0,
2012-11-15, 09:09:04,VALID,918.247,VALID,0,VALID,82.7369,VALID,328.77,VALID,22.6079,VALID,128,VALID,0,
2012-11-15, 09:10:04,VALID,918.29,VALID,0,VALID,82.493,VALID,331.134,VALID,22.7267,VALID,127,VALID,0,
2012-11-15, 09:11:04,VALID,918.246,VALID,0,VALID,80.5185,VALID,438.682,VALID,22.8634,VALID,139,VALID,0,
2012-11-15, 09:12:04,VALID,918.365,VALID,0,VALID,78.384,VALID,478.113,VALID,22.961,VALID,144,VALID,0,
2012-11-15, 09:13:04,VALID,918.271,VALID,0,VALID,78.14,VALID,383.78,VALID,23,VALID,130,VALID,0,
2012-11-15, 09:14:04,VALID,918.315,VALID,0,VALID,80.3432,VALID,400.648,VALID,23.0586,VALID,129,VALID,0,
2012-11-15, 09:15:04,VALID,918.362,VALID,0,VALID,77.1413,VALID,435.029,VALID,23.1367,VALID,129,VALID,0,
2012-11-15, 09:16:04,VALID,918.342,VALID,0,VALID,78.1858,VALID,396.458,VALID,23.0018,VALID,129,VALID,0,
2012-11-15, 09:17:04,VALID,918.383,VALID,0,VALID,79.2607,VALID,473.171,VALID,23,VALID,128,VALID,0,
2012-11-15, 09:18:04,VALID,918.361,VALID,0,VALID,79.6418,VALID,593.612,VALID,23.0976,VALID,146,VALID,0,
2012-11-15, 09:19:04,VALID,918.386,VALID,0,VALID,79.8095,VALID,469.088,VALID,23.2928,VALID,150,VALID,0,
2012-11-15, 09:20:04,VALID,918.12,VALID,0,VALID,78.6355,VALID,408.921,VALID,23.3691,VALID,145,VALID,0,
2012-11-15, 09:21:04,VALID,918.351,VALID,0,VALID,79.5503,VALID,591.249,VALID,23.4667,VALID,145,VALID,0,
2012-11-15, 09:22:04,VALID,918.396,VALID,0,VALID,77.553,VALID,644.539,VALID,23.6247,VALID,122,VALID,0,
2012-11-15, 09:23:04,VALID,918.368,VALID,0,VALID,78.8719,VALID,707.715,VALID,23.7596,VALID,122,VALID,0,
2012-11-15, 09:24:04,VALID,918.382,VALID,0,VALID,72.6359,VALID,685.689,VALID,23.9158,VALID,133,VALID,0,
2012-11-15, 09:25:04,VALID,918.386,VALID,0,VALID,74.2673,VALID,715.558,VALID,24.0933,VALID,120,VALID,0,
2012-11-15, 09:26:04,VALID,918.391,VALID,0,VALID,73.9853,VALID,566.537,VALID,24.0915,VALID,121,VALID,0,
2012-11-15, 09:27:04,VALID,918.424,VALID,0,VALID,75.67,VALID,577.604,VALID,24.1909,VALID,121,VALID,0,
2012-11-15, 09:28:04,VALID,918.382,VALID,0,VALID,75.6167,VALID,482.948,VALID,24.3258,VALID,121,VALID,0,
2012-11-15, 09:29:04,VALID,918.358,VALID,0,VALID,74.8924,VALID,433.095,VALID,24.4429,VALID,124,VALID,0,
2012-11-15, 09:30:04,VALID,918.371,VALID,0,VALID,75.5938,VALID,434.277,VALID,24.3081,VALID,131,VALID,0,
2012-11-15, 09:31:04,VALID,918.354,VALID,0,VALID,76.7449,VALID,415.367,VALID,24.2867,VALID,153,VALID,0,
2012-11-15, 09:32:04,VALID,918.318,VALID,0,VALID,75.8911,VALID,405.59,VALID,24.269,VALID,180,VALID,0,
2012-11-15, 09:33:04,VALID,918.364,VALID,0,VALID,75.266,VALID,407.417,VALID,24.2672,VALID,168,VALID,0,
2012-11-15, 09:34:04,VALID,918.381,VALID,0,VALID,74.9382,VALID,466.402,VALID,24.3063,VALID,200,VALID,0,
2012-11-15, 09:35:04,VALID,918.336,VALID,0,VALID,73.7947,VALID,603.927,VALID,24.3063,VALID,222,VALID,0,
2012-11-15, 09:36:04,VALID,918.327,VALID,0,VALID,74.7781,VALID,561.165,VALID,24.3063,VALID,228,VALID,0,
2012-11-15, 09:37:04,VALID,918.341,VALID,0,VALID,73.2687,VALID,488.965,VALID,24.4234,VALID,226,VALID,0,
2012-11-15, 09:38:04,VALID,918.381,VALID,0,VALID,72.7045,VALID,427.186,VALID,24.482,VALID,272,VALID,0,
2012-11-15, 09:39:04,VALID,918.354,VALID,0,VALID,73.6498,VALID,379.267,VALID,24.4411,VALID,244,VALID,0,
2012-11-15, 09:40:04,VALID,918.35,VALID,0,VALID,74.2521,VALID,342.093,VALID,24.4606,VALID,240,VALID,0,
2012-11-15, 09:41:04,VALID,918.35,VALID,0,VALID,73.3373,VALID,325.547,VALID,24.5992,VALID,197,VALID,0,
2012-11-15, 09:42:04,VALID,918.352,VALID,0,VALID,75.6243,VALID,314.803,VALID,24.7163,VALID,196,VALID,0,
2012-11-15, 09:43:04,VALID,918.367,VALID,0,VALID,75.2889,VALID,301.158,VALID,24.8902,VALID,251,VALID,0,
2012-11-15, 09:44:04,VALID,918.38,VALID,0,VALID,71.1646,VALID,286.653,VALID,24.853,VALID,164,VALID,0,
2012-11-15, 09:45:04,VALID,918.393,VALID,0,VALID,73.7184,VALID,265.917,VALID,24.7944,VALID,173,VALID,0,
2012-11-15, 09:46:04,VALID,918.403,VALID,0,VALID,75.2355,VALID,253.346,VALID,24.7926,VALID,182,VALID,0,
2012-11-15, 09:47:04,VALID,918.399,VALID,0,VALID,73.8633,VALID,245.073,VALID,24.853,VALID,221,VALID,0,
2012-11-15, 09:48:04,VALID,918.378,VALID,0,VALID,74.0844,VALID,234.651,VALID,24.8511,VALID,190,VALID,0,
2012-11-15, 09:49:04,VALID,918.386,VALID,0,VALID,73.7413,VALID,214.453,VALID,24.8511,VALID,189,VALID,0,
2012-11-15, 09:50:04,VALID,918.392,VALID,0,VALID,73.1467,VALID,200.163,VALID,24.773,VALID,172,VALID,0,
2012-11-15, 09:51:04,VALID,918.35,VALID,0,VALID,74.496,VALID,187.915,VALID,24.7926,VALID,272,VALID,0,
2012-11-15, 09:52:04,VALID,918.391,VALID,0,VALID,74.8238,VALID,185.229,VALID,24.8316,VALID,272,VALID,0,
2012-11-15, 09:53:04,VALID,918.354,VALID,0,VALID,74.7247,VALID,193.072,VALID,24.9116,VALID,193,VALID,0,
2012-11-15, 09:54:04,VALID,918.394,VALID,0,VALID,73.8023,VALID,226.164,VALID,25.0893,VALID,275,VALID,0,
2012-11-15, 09:55:04,VALID,918.358,VALID,0,VALID,73.5736,VALID,283.215,VALID,25.2827,VALID,275,VALID,0,
2012-11-15, 09:56:04,VALID,918.394,VALID,0,VALID,72.8112,VALID,403.119,VALID,25.4585,VALID,275,VALID,0,
2012-11-15, 09:57:04,VALID,918.314,VALID,0,VALID,73.5202,VALID,515.718,VALID,25.4585,VALID,253,VALID,0,
2012-11-15, 09:58:04,VALID,918.314,VALID,0,VALID,71.9574,VALID,638.845,VALID,25.4194,VALID,204,VALID,0,
2012-11-15, 09:59:04,VALID,918.292,VALID,0,VALID,70.8368,VALID,691.921,VALID,25.5347,VALID,244,VALID,0,
2012-11-15, 10:00:04,VALID,918.329,VALID,0,VALID,70.2955,VALID,688.698,VALID,25.732,VALID,256,VALID,0,
2012-11-15, 10:01:04,VALID,918.293,VALID,0,VALID,69.5942,VALID,695.681,VALID,25.6147,VALID,242,VALID,0,
2012-11-15, 10:02:04,VALID,918.229,VALID,0,VALID,72.2166,VALID,670.325,VALID,25.5561,VALID,267,VALID,0.00195313,
2012-11-15, 10:03:04,VALID,918.496,VALID,0,VALID,72.7655,VALID,662.482,VALID,25.5952,VALID,187,VALID,0,
2012-11-15, 10:04:04,VALID,918.007,VALID,0,VALID,71.9041,VALID,677.202,VALID,25.8296,VALID,46,VALID,0,
2012-11-15, 10:05:04,VALID,918.228,VALID,0,VALID,70.7682,VALID,694.607,VALID,25.8667,VALID,245,VALID,0,
2012-11-15, 10:06:04,VALID,917.993,VALID,0,VALID,69.1977,VALID,718.352,VALID,25.9078,VALID,196,VALID,0,
2012-11-15, 10:07:04,VALID,918.152,VALID,0,VALID,71.8583,VALID,766.378,VALID,26.0836,VALID,165,VALID,0,
2012-11-15, 10:08:04,VALID,918.024,VALID,0,VALID,68.969,VALID,792.701,VALID,26.1813,VALID,178,VALID,0,
2012-11-15, 10:09:04,VALID,918.102,VALID,0,VALID,69.03,VALID,799.899,VALID,26.3942,VALID,178,VALID,0,
2012-11-15, 10:10:04,VALID,918.138,VALID,0,VALID,67.3071,VALID,803.015,VALID,26.5525,VALID,197,VALID,0,
2012-11-15, 10:11:04,VALID,918.249,VALID,0,VALID,68.8776,VALID,797.106,VALID,26.6286,VALID,197,VALID,0,
2012-11-15, 10:12:04,VALID,918.187,VALID,0,VALID,69.6399,VALID,801.833,VALID,26.7849,VALID,197,VALID,0,
2012-11-15, 10:13:04,VALID,918.248,VALID,0,VALID,65.6986,VALID,806.023,VALID,27.1171,VALID,189,VALID,0,
2012-11-15, 10:14:04,VALID,918.712,VALID,0,VALID,65.6452,VALID,806.453,VALID,27.0801,VALID,231,VALID,0,
2012-11-15, 10:15:04,VALID,918.188,VALID,0,VALID,66.8955,VALID,807.635,VALID,27.2755,VALID,188,VALID,0,
2012-11-15, 10:16:04,VALID,918.024,VALID,0,VALID,65.0125,VALID,807.85,VALID,27.4884,VALID,188,VALID,0,
2012-11-15, 10:17:04,VALID,917.636,VALID,0,VALID,62.4663,VALID,817.735,VALID,27.2344,VALID,126,VALID,0,
2012-11-15, 10:18:04,VALID,918.65,VALID,0,VALID,65.1726,VALID,834.281,VALID,27.2539,VALID,124,VALID,0,
2012-11-15, 10:19:04,VALID,918.132,VALID,0,VALID,64.8981,VALID,831.702,VALID,27.4102,VALID,126,VALID,0,
2012-11-15, 10:20:04,VALID,918.146,VALID,0,VALID,63.9986,VALID,814.619,VALID,27.5275,VALID,125,VALID,0,
2012-11-15, 10:21:04,VALID,918.233,VALID,0,VALID,63.8461,VALID,815.908,VALID,27.6838,VALID,139,VALID,0,
2012-11-15, 10:22:04,VALID,917.97,VALID,0,VALID,63.6784,VALID,813.115,VALID,27.4884,VALID,151,VALID,0.315625,
2012-11-15, 10:23:04,VALID,918.099,VALID,0,VALID,65.6986,VALID,823.536,VALID,27.2539,VALID,124,VALID,0,
2012-11-15, 10:24:04,VALID,917.99,VALID,0,VALID,66.2551,VALID,825.148,VALID,26.9608,VALID,85,VALID,0,
2012-11-15, 10:25:04,VALID,917.727,VALID,0,VALID,63.9757,VALID,825.255,VALID,27.1171,VALID,181,VALID,0,
2012-11-15, 10:26:04,VALID,918.024,VALID,0,VALID,63.4268,VALID,825.685,VALID,27.1171,VALID,76,VALID,0,
2012-11-15, 10:27:04,VALID,917.974,VALID,0,VALID,66.0264,VALID,817.627,VALID,27.0564,VALID,85,VALID,0,
2012-11-15, 10:28:04,VALID,918.211,VALID,0,VALID,66.4228,VALID,799.577,VALID,26.822,VALID,166,VALID,0,
2012-11-15, 10:29:04,VALID,918.152,VALID,0,VALID,67.9323,VALID,811.073,VALID,26.6677,VALID,193,VALID,0,
2012-11-15, 10:30:04,VALID,917.759,VALID,0,VALID,64.4102,VALID,814.619,VALID,26.824,VALID,171,VALID,0,
2012-11-15, 10:31:04,VALID,917.869,VALID,0,VALID,63.7927,VALID,817.949,VALID,26.9608,VALID,187,VALID,0,
2012-11-15, 10:32:04,VALID,917.947,VALID,0,VALID,63.2439,VALID,816.553,VALID,26.9783,VALID,203,VALID,0,
2012-11-15, 10:33:04,VALID,918.441,VALID,0,VALID,65.4928,VALID,814.834,VALID,27.115,VALID,37,VALID,0,
2012-11-15, 10:34:04,VALID,917.823,VALID,0,VALID,63.1371,VALID,803.767,VALID,27.2127,VALID,4,VALID,0,
2012-11-15, 10:35:04,VALID,917.866,VALID,0,VALID,64.8524,VALID,790.445,VALID,27.3125,VALID,19,VALID,0,
2012-11-15, 10:36:04,VALID,917.956,VALID,0,VALID,62.047,VALID,813.759,VALID,27.3886,VALID,306,VALID,0,
2012-11-15, 10:37:04,VALID,917.478,VALID,0,VALID,64.0062,VALID,798.503,VALID,27.4082,VALID,302,VALID,0,
2012-11-15, 10:38:04,VALID,917.677,VALID,0,VALID,65.3098,VALID,794.205,VALID,27.5645,VALID,56,VALID,0,
2012-11-15, 10:39:04,VALID,918.892,VALID,0,VALID,65.447,VALID,815.371,VALID,27.6231,VALID,178,VALID,0,
2012-11-15, 10:40:04,VALID,917.735,VALID,0,VALID,59.981,VALID,799.362,VALID,27.7425,VALID,176,VALID,0,
2012-11-15, 10:41:04,VALID,918.111,VALID,0,VALID,61.864,VALID,803.767,VALID,27.7599,VALID,197,VALID,0,
2012-11-15, 10:42:04,VALID,917.686,VALID,0,VALID,60.8349,VALID,818.379,VALID,27.8011,VALID,210,VALID,0,
2012-11-15, 10:43:04,VALID,917.295,VALID,0,VALID,59.8514,VALID,804.412,VALID,27.8967,VALID,192,VALID,0,
2012-11-15, 10:44:04,VALID,917.812,VALID,0,VALID,59.1958,VALID,804.412,VALID,27.9358,VALID,215,VALID,0,
2012-11-15, 10:45:04,VALID,917.726,VALID,0,VALID,58.9824,VALID,810.214,VALID,27.9163,VALID,225,VALID,0,
2012-11-15, 10:46:04,VALID,917.733,VALID,0,VALID,60.0725,VALID,792.164,VALID,27.7599,VALID,270,VALID,0,
2012-11-15, 10:47:04,VALID,917.736,VALID,0,VALID,62.6264,VALID,822.032,VALID,27.7208,VALID,170,VALID,0,
2012-11-15, 10:48:04,VALID,917.915,VALID,0,VALID,59.3026,VALID,821.173,VALID,27.8576,VALID,209,VALID,0,
2012-11-15, 10:49:04,VALID,917.698,VALID,0,VALID,58.1057,VALID,834.925,VALID,27.8793,VALID,214,VALID,0,
2012-11-15, 10:50:04,VALID,917.737,VALID,0,VALID,60.4003,VALID,841.694,VALID,27.9553,VALID,193,VALID,0,
2012-11-15, 10:51:04,INVALID,938.662,VALID,0,VALID,58.1133,VALID,835.785,VALID,27.9944,VALID,241,VALID,0,
2012-11-15, 10:52:04,VALID,917.671,VALID,0,VALID,60.0268,VALID,844.38,VALID,27.8185,VALID,237,VALID,0,
2012-11-15, 10:53:04,VALID,918.625,VALID,0,VALID,58.6622,VALID,850.397,VALID,27.7599,VALID,228,VALID,0,
2012-11-15, 10:54:04,VALID,918.123,VALID,0,VALID,60.4308,VALID,857.595,VALID,27.8381,VALID,230,VALID,0,
2012-11-15, 10:55:04,VALID,917.667,VALID,0,VALID,58.7918,VALID,871.24,VALID,27.9575,VALID,243,VALID,0,
2012-11-15, 10:56:04,VALID,917.703,VALID,0,VALID,58.9061,VALID,871.455,VALID,27.9575,VALID,213,VALID,0,
2012-11-15, 10:57:04,VALID,917.654,VALID,0,VALID,58.9214,VALID,849.107,VALID,28.0161,VALID,204,VALID,0,
2012-11-15, 10:58:04,VALID,917.611,VALID,0,VALID,59.333,VALID,701.698,VALID,28.0357,VALID,252,VALID,0,
2012-11-15, 10:59:04,VALID,917.701,VALID,0,VALID,60.0878,VALID,787.114,VALID,28.0357,VALID,227,VALID,0,
2012-11-15, 11:00:04,VALID,917.58,VALID,0,VALID,58.5326,VALID,795.494,VALID,28.1334,VALID,230,VALID,0,
2012-11-15, 11:01:04,VALID,917.675,VALID,0,VALID,58.8528,VALID,779.163,VALID,28.2116,VALID,196,VALID,0,
2012-11-15, 11:02:04,VALID,917.434,VALID,0,VALID,58.6393,VALID,806.99,VALID,28.2507,VALID,232,VALID,0,
2012-11-15, 11:03:04,VALID,917.513,VALID,0,VALID,55.5518,VALID,793.238,VALID,28.2485,VALID,156,VALID,0,
2012-11-15, 11:04:04,VALID,917.562,VALID,0,VALID,54.6904,VALID,811.073,VALID,28.5048,VALID,146,VALID,0,
2012-11-15, 11:05:04,VALID,917.481,VALID,0,VALID,55.9254,VALID,805.809,VALID,28.4071,VALID,168,VALID,0,
2012-11-15, 11:06:04,VALID,917.468,VALID,0,VALID,58.9747,VALID,797.213,VALID,28.4071,VALID,166,VALID,0,
2012-11-15, 11:07:04,VALID,917.521,VALID,0,VALID,56.924,VALID,827.834,VALID,28.4049,VALID,60,VALID,0,
2012-11-15, 11:08:04,VALID,917.833,VALID,0,VALID,59.7981,VALID,835.033,VALID,28.2311,VALID,37,VALID,0,
2012-11-15, 11:09:04,VALID,916.873,VALID,0,VALID,60.751,VALID,830.735,VALID,28.3093,VALID,87,VALID,0,
2012-11-15, 11:10:04,VALID,917.552,VALID,0,VALID,57.2976,VALID,827.619,VALID,28.4462,VALID,141,VALID,0,
2012-11-15, 11:11:04,VALID,917.449,VALID,0,VALID,56.5734,VALID,847.496,VALID,28.3289,VALID,131,VALID,0,
2012-11-15, 11:12:04,VALID,917.488,VALID,0,VALID,59.2263,VALID,854.05,VALID,28.368,VALID,172,VALID,0.0289063,
2012-11-15, 11:13:04,VALID,917.435,VALID,0,VALID,58.3801,VALID,861.356,VALID,28.444,VALID,170,VALID,0,
2012-11-15, 11:14:04,VALID,917.323,VALID,0,VALID,55.0182,VALID,859.207,VALID,28.3875,VALID,153,VALID,0,
2012-11-15, 11:15:04,VALID,917.481,VALID,0,VALID,56.0778,VALID,862.645,VALID,28.5048,VALID,163,VALID,0,
2012-11-15, 11:16:04,VALID,917.41,VALID,0,VALID,58.0523,VALID,853.19,VALID,28.444,VALID,175,VALID,0,
2012-11-15, 11:17:04,VALID,917.734,VALID,0,VALID,57.0232,VALID,850.182,VALID,28.6221,VALID,200,VALID,0,
2012-11-15, 11:18:04,VALID,917.286,VALID,0,VALID,54.4846,VALID,844.38,VALID,28.798,VALID,189,VALID,0,
2012-11-15, 11:19:04,VALID,917.328,VALID,0,VALID,53.7527,VALID,842.446,VALID,28.9914,VALID,242,VALID,0,
2012-11-15, 11:20:04,VALID,917.23,VALID,0,VALID,57.6178,VALID,839.223,VALID,28.9327,VALID,185,VALID,0,
2012-11-15, 11:21:04,VALID,917.199,VALID,0,VALID,55.0487,VALID,837.504,VALID,28.8741,VALID,189,VALID,0,
2012-11-15, 11:22:04,VALID,917.199,VALID,0,VALID,55.1173,VALID,845.777,VALID,28.8936,VALID,207,VALID,0,
2012-11-15, 11:23:04,VALID,917.227,VALID,0,VALID,56.1388,VALID,849.322,VALID,28.9545,VALID,189,VALID,0,
2012-11-15, 11:24:04,VALID,917.127,VALID,0,VALID,56.7868,VALID,856.951,VALID,28.9132,VALID,167,VALID,0,
2012-11-15, 11:25:04,VALID,917.217,VALID,0,VALID,56.6344,VALID,849.107,VALID,28.8741,VALID,174,VALID,0,
2012-11-15, 11:26:04,VALID,917.232,VALID,0,VALID,56.7182,VALID,864.149,VALID,28.8176,VALID,170,VALID,0,